Hourly Data Report for June 11, 2021

BORDEN AWOS
ONTARIO
Current Station Operator: DND

44°16'20.000" N
79°54'42.000" W
222.50 m
611B002
71534
YBN

Download Data

Hourly Data (June 2021)
Hourly Data Report for June 11, 2021
TIME
LST
Temp Definition
°C
Dew Point Definition
°C
Rel Hum Definition
%
Precip. Amount Definition
mm

Wind Dir Definition
10's deg

Wind Spd Definition
km/h
Visibility Definition
km
Stn Press Definition
kPa
Hmdx Definition


Wind Chill Definition


Weather Definition


00:00 17.7 6.4 48   15 11 14.5 98.89     LegendNANA
01:00 17.5 6.5 48   12 7 14.5 98.88     LegendNANA
02:00 17.3 6.9 50   16 6 14.5 98.87     LegendNANA
03:00 16.7 7.0 53   18 7 14.5 98.84     LegendNANA
04:00 15.4 7.2 58   18 6 14.5 98.80     LegendNANA
05:00 13.8 8.1 69     0 14.5 98.80     LegendNANA
06:00 16.4 9.0 62     0 14.5 98.81     LegendNANA
07:00 18.3 7.9 51   16 6 14.5 98.80     LegendNANA
08:00 19.8 7.9 46   12 7 14.5 98.78     LegendNANA
09:00 21.4 8.3 43   9 13 14.5 98.77     LegendNANA
10:00 22.1 8.9 43   10 7 14.5 98.75     LegendNANA
11:00 23.9 11.0 44   15 7 14.5 98.71 26   LegendNANA
12:00 24.8 12.1 45   11 13 14.5 98.62 27   LegendNANA
13:00 25.5 12.7 45   11 9 14.5 98.59 28   LegendNANA
14:00 25.8 12.7 44   5 15 14.5 98.56 28   LegendNANA
15:00 22.5 12.4 53   4 19 14.5 98.60 25   LegendNANA
16:00 21.4 13.6 61   5 11 14.5 98.55 25   Rain
17:00 20.5 14.7 69   3 11 14.5 98.55     Rain
18:00 19.1 13.9 72   5 13 14.5 98.58     LegendNANA
19:00 18.2 13.4 74   6 11 14.5 98.60     LegendNANA
20:00 17.5 13.1 75   7 7 14.5 98.59     LegendNANA
21:00 16.7 12.8 78   9 4 14.5 98.64     LegendNANA
22:00 14.2 11.9 86   32 4 14.5 98.69     LegendNANA
23:00 13.3 11.6 89     0 14.5 98.70     LegendNANA

Notes on Data Quality.

Legend

  • E = Estimated
  • M = Missing
  • NA = Not Available*
  • [empty] = Indicates an unobserved value
Date modified: